Regional Weather Roundup
Issued by NWS Sioux Falls, SD

Home | Current Version | Previous Version | Text Only | Print | Product List | Glossary On
Versions: 1 2 3 4 5 6 7 8 9 10 11 12 13 14 15 16 17 18 19 20 21 22 23 24 25 26 27 28 29 30 31 32 33 34 35 36 37 38 39 40 41 42 43 44 45 46 47 48 49 50
000
ASUS43 KFSD 221710
RWRFSD

WEATHER ROUNDUP FOR SE SOUTH DAKOTA/SW MINNESOTA/NW IOWA
NATIONAL WEATHER SERVICE SIOUX FALLS SD
1200 PM CDT FRI AUG 22 2014

NOTE: "FAIR" INDICATES FEW OR NO CLOUDS BELOW 12,000 FEET WITH NO
SIGNIFICANT WEATHER AND OR OBSTRUCTIONS TO VISIBILITY.


SDZ038>040-050-052>070-221800-
SOUTHEAST SOUTH DAKOTA

CITY           SKY/WX    TMP DP  RH WIND       PRES   REMARKS
CHAMBERLAIN    CLOUDY    78  66  67 E7        29.99F
HURON          MOSUNNY   83  66  56 NE9       29.97F
MADISON        FAIR      79  73  83 NE6       30.00S
MITCHELL       MOSUNNY   82  68  62 N5        29.98S
SIOUX FALLS    PTSUNNY   83  70  64 E8        29.98R
WINNER         FAIR      80  69  69 SE9       30.00S
YANKTON        MOSUNNY   81  72  74 NE7       29.97R
$$

MNZ071-072-080-081-089-090-097-098-221800-
SOUTHWEST MINNESOTA

CITY           SKY/WX    TMP DP  RH WIND       PRES   REMARKS
FAIRMONT       CLOUDY    79  70  73 MISG      29.99R
JACKSON        PTSUNNY   75  70  83 N6        30.01R
LUVERNE        SUNNY     82  70  65 NE8       29.99S
MARSHALL       PTSUNNY   75  70  83 N3        29.99R
MONTEVIDEO     CLOUDY    82  75  78 CALM      30.00R
PIPESTONE      PTSUNNY   75  70  83 NE6       30.01R
REDWOOD FALLS  PTSUNNY   79  69  71 E6        29.98R
TRACY          PTSUNNY   78  70  76 CALM      30.00S
WINDOM         PTSUNNY   77  68  73 N5        30.00R
WORTHINGTON    MOSUNNY   79  19  11 NE9       30.01S
$$

IAZ001>003-012>014-020>022-031-032-NEZ013-014-SDZ071-221800-
NORTHWEST IOWA

CITY           SKY/WX    TMP DP  RH WIND       PRES   REMARKS
CHEROKEE       PTSUNNY   80  76  85 NE6       29.96S
DENISON        SUNNY     84  73  70 CALM      29.92F
ESTHERVILLE    CLOUDY    74  71  91 NE6       29.99S
LE MARS        PTSUNNY   82  75  78 N8        29.97R
ORANGE CITY    CLOUDY    81  72  74 E8        29.99R
SHELDON        CLOUDY    79  73  83 NE12      29.98S
SIOUX CITY     MOSUNNY   87  74  64 N7        29.94S HX  95
SPENCER        CLOUDY    76  71  85 NE10      29.99R
STORM LAKE     CLOUDY    79  79 100 VRB7      29.98R
$$

ABBREVIATIONS USED IN REMARKS
   TC - TEMPERATURE IN CELSIUS
  WCI - WIND CHILL INDEX
   HX - HEAT INDEX
  VSB - VISIBILITY




USA.gov is the U.S. government's official web portal to all federal, state and local government web resources and services.